This is the latest recevied weather packets stored in our database for station/object KE9ADS. If no packets are shown the sender has not sent any weather packets the latest 10 day(s).
| Time | Temp. | Humidity | Pressure | Rain* | Wind** | Luminosity | Snow |
|---|---|---|---|---|---|---|---|
| 1777844480 | 22.78° C | 38% | 1009.3 hPa | 0 mm | - | 351 W/m² | - |
| 1777843876 | 22.22° C | 39% | 1009.4 hPa | 0 mm | - | 425 W/m² | - |
| 1777843271 | 22.22° C | 39% | 1009.3 hPa | 0 mm | - | 459 W/m² | - |
| 1777842669 | 21.67° C | 38% | 1009.5 hPa | 0 mm | - | 494 W/m² | - |
| 1777842068 | 22.78° C | 40% | 1009.6 hPa | 0 mm | - | 491 W/m² | - |
| 1777841467 | 22.78° C | 38% | 1009.6 hPa | 0 mm | - | 547 W/m² | - |
| 1777840861 | 22.78° C | 39% | 1009.9 hPa | 0 mm | - | 572 W/m² | - |
| 1777840261 | 21.67° C | 40% | 1009.8 hPa | 0 mm | - | 604 W/m² | - |
| 1777839656 | 21.67° C | 40% | 1010 hPa | 0 mm | - | 623 W/m² | - |
| 1777839051 | 21.67° C | 41% | 1009.9 hPa | 0 mm | - | 639 W/m² | - |
| 1777838450 | 21.67° C | 40% | 1010.2 hPa | 0 mm | - | 671 W/m² | - |
| 1777837850 | 21.11° C | 40% | 1010.1 hPa | 0 mm | - | 691 W/m² | - |
| 1777837247 | 21.11° C | 40% | 1010.2 hPa | 0 mm | - | 705 W/m² | - |
| 1777836644 | 21.11° C | 41% | 1010.5 hPa | 0 mm | - | 734 W/m² | - |
| 1777836042 | 20.56° C | 43% | 1010.5 hPa | 0 mm | - | 746 W/m² | - |
| 1777835442 | 20° C | 41% | 1010.6 hPa | 0 mm | - | 759 W/m² | - |
| 1777834842 | 20° C | 42% | 1010.9 hPa | 0 mm | - | 546 W/m² | - |
| 1777834238 | 19.44° C | 43% | 1011.1 hPa | 0 mm | - | 505 W/m² | - |
| 1777833637 | 19.44° C | 43% | 1010.9 hPa | 0 mm | - | 660 W/m² | - |
| 1777833037 | 20° C | 41% | 1011.1 hPa | 0 mm | - | 667 W/m² | - |
| 1777832433 | 20° C | 41% | 1011.2 hPa | 0 mm | - | 793 W/m² | - |
| 1777831832 | 19.44° C | 43% | 1011.3 hPa | 0 mm | - | 799 W/m² | - |
| 1777831226 | 19.44° C | 42% | 1011.6 hPa | 0 mm | - | 800 W/m² | - |
| 1777830626 | 18.89° C | 43% | 1011.6 hPa | 0 mm | - | 801 W/m² | - |
| 1777830026 | 18.33° C | 44% | 1012.1 hPa | 0 mm | - | 804 W/m² | - |
* Rain latest hour (hover to see other rain measurements)
** Current wind speed in m/s (hover to see current wind gust speed)